This demonstration page uses our WeatherBlox Daily Observations layout. Learn more.

Left ArrowRight Arrow

Hourly Observations for October 14, 2016

Temp ( °F °C ) Dew Point ( °F °C ) Humidity (%) Winds ( mph kmh ) Pressure ( in mb ) Visibility ( mi km ) Precip ( " mm )
12:53 am 00:53 Cloudy 61 16.1 52 11.1 72 72 NE 3 6 30.10 1019 10 16 0.00 0.00
1:53 am 01:53 Cloudy 61 16.1 52 11.1 72 72 E 5 7 30.08 1019 10 16 0.00 0.00
2:53 am 02:53 Cloudy 62 16.7 53 11.7 73 73 ENE 3 6 30.07 1018 10 16 0.00 0.00
3:53 am 03:53 Cloudy 62 16.7 54 12.2 75 75 NE 3 6 30.05 1018 10 16 0.00 0.00
4:53 am 04:53 Cloudy 61 16.1 54 12.2 78 78 Calm 30.05 1018 10 16 0.00 0.00
5:53 am 05:53 Cloudy 62 16.7 56 13.3 80 80 SE 5 7 30.05 1018 10 16 0.00 0.00
6:05 am 06:05 Cloudy 62 16.7 56 13.3 80 80 Calm 30.09 1019 10 16 0.00 0.00
6:53 am 06:53 Cloudy 62 16.7 57 13.9 84 84 SSE 3 6 30.06 1018 9 14 0.00 0.00
7:08 am 07:08 Cloudy 63 17 57 14 83 83 ESE 5 7 30.09 1019 8 13 0.00 0.00
7:53 am 07:53 Cloudy 61 16.1 58 14.4 90 90 S 3 6 30.06 1018 7 11 0.00 0.00
8:16 am 08:16 Cloudy 63 17 57 14 83 83 SSE 3 6 30.09 1019 7 11 0.00 0.00
8:31 am 08:31 Cloudy with Mist and Fog 62 16.7 58 14.4 86 86 Calm 30.09 1019 6 10 0.00 0.00
8:53 am 08:53 Cloudy with Mist and Fog 62 16.7 58 14.4 86 86 Calm 30.07 1018 6 10 0.00 0.00
9:22 am 09:22 Cloudy 63 17 57 14 83 83 SE 5 7 30.09 1019 7 11 0.00 0.00
9:43 am 09:43 Cloudy 63 17.2 58 14.4 84 84 SE 5 7 30.09 1019 8 13 0.00 0.00
9:53 am 09:53 Cloudy 63 17.2 58 14.4 84 84 SSE 5 7 30.08 1019 9 14 0.00 0.00
10:53 am 10:53 Cloudy 64 17.8 59 15 84 84 VRB 3 6 30.09 1019 10 16 0.00 0.00
11:53 am 11:53 Cloudy 65 18.3 59 15 81 81 S 5 7 30.08 1019 10 16 0.00 0.00
12:53 pm 12:53 Cloudy 69 20.6 60 15.6 73 73 Calm 30.05 1018 10 16 0.00 0.00
1:15 pm 13:15 Partly Cloudy 71 21.7 60 15.6 68 68 VRB 7 11 30.00 1016 10 16 0.00 0.00
1:53 pm 13:53 Sunny 73 22.8 60 15.6 64 64 VRB 6 9 30.01 1016 10 16 0.00 0.00
2:53 pm 14:53 Sunny 75 23.9 60 15.6 60 60 VRB 3 6 29.96 1015 10 16 0.00 0.00
3:53 pm 15:53 Sunny 78 25.6 60 15.6 54 54 VRB 5 7 29.93 1014 10 16 0.00 0.00
4:53 pm 16:53 Sunny 80 26.7 58 14.4 47 47 SSE 8 13 29.90 1013 10 16 0.00 0.00
5:53 pm 17:53 Sunny 81 27.2 57 13.9 44 44 SSE 6 9 29.88 1012 10 16 0.00 0.00
6:53 pm 18:53 Sunny 79 26.1 59 15 50 50 SSE 8 13 29.88 1012 10 16 0.00 0.00
7:53 pm 19:53 Clear 72 22.2 58 14.4 61 61 SSE 8 13 29.90 1012 10 16 0.00 0.00
8:53 pm 20:53 Clear 70 21.1 59 15 68 68 SSE 9 15 29.90 1013 10 16 0.00 0.00
9:53 pm 21:53 Clear 72 22.2 61 16.1 68 68 SE 9 15 29.90 1012 10 16 0.00 0.00
10:53 pm 22:53 Clear 72 22.2 64 17.8 76 76 SSE 13 20 29.91 1013 10 16 0.00 0.00
11:53 pm 23:53 Clear 70 21.1 65 18.3 84 84 SE 12 19 29.91 1013 10 16 0.00 0.00

Powered by AerisWeather